| time (UTC) | temp C | wind direction | speed KPH | gust KPH | rain 1hr cm | rain 24hr cm | rain mn cm | humidity % | barometer mb |
| 20260507000027 | 18 | 238 | 0.0 | 4.8 | 0.00 | 0.18 | 0.18 | 81 | 1008.3 |
| 20260506234520 | 19 | 164 | 0.0 | 3.2 | 0.00 | 0.18 | 0.18 | 80 | 1008.3 |
| 20260506233020 | 19 | 207 | 0.0 | 3.2 | 0.00 | 0.18 | 0.18 | 80 | 1008.3 |
| 20260506231519 | 19 | 212 | 0.0 | 4.8 | 0.00 | 0.18 | 0.18 | 79 | 1008.1 |
| 20260506230013 | 19 | 240 | 0.0 | 6.4 | 0.00 | 0.18 | 0.18 | 78 | 1008.2 |
| 20260506224514 | 20 | 283 | 0.0 | 4.8 | 0.00 | 0.18 | 0.18 | 78 | 1008.1 |
| 20260506223015 | 20 | 262 | 0.0 | 12.9 | 0.00 | 0.18 | 0.18 | 77 | 1008.2 |
| 20260506221526 | 20 | 224 | 0.0 | 6.4 | 0.00 | 0.18 | 0.18 | 77 | 1007.9 |
| 20260506220030 | 20 | 167 | 1.6 | 6.4 | 0.00 | 0.18 | 0.18 | 78 | 1008.0 |
| 20260506214524 | 20 | 231 | 0.0 | 6.4 | 0.00 | 0.18 | 0.18 | 77 | 1007.8 |
| 20260506213030 | 20 | 170 | 3.2 | 8.0 | 0.00 | 0.18 | 0.18 | 77 | 1007.9 |
| 20260506211528 | 20 | 183 | 3.2 | 9.7 | 0.00 | 0.18 | 0.18 | 76 | 1007.7 |
| 20260506210015 | 19 | 227 | 3.2 | 8.0 | 0.00 | 0.18 | 0.18 | 78 | 1007.7 |
| 20260506204514 | 19 | 315 | 0.0 | 12.9 | 0.00 | 0.18 | 0.18 | 79 | 1007.8 |
| 20260506203030 | 18 | 264 | 1.6 | 14.5 | 0.00 | 0.18 | 0.18 | 80 | 1007.7 |
| 20260506201533 | 18 | 250 | 1.6 | 6.4 | 0.00 | 0.18 | 0.18 | 80 | 1007.5 |
| 20260506200028 | 18 | 199 | 1.6 | 11.3 | 0.00 | 0.18 | 0.18 | 81 | 1007.8 |
| 20260506194525 | 18 | 244 | 0.0 | 8.0 | 0.00 | 0.18 | 0.18 | 82 | 1008.0 |
| 20260506193022 | 18 | 223 | 3.2 | 8.0 | 0.00 | 0.18 | 0.18 | 82 | 1008.1 |
| 20260506191522 | 17 | 174 | 0.0 | 12.9 | 0.00 | 0.18 | 0.18 | 83 | 1008.3 |
| 20260506190019 | 17 | 191 | 1.6 | 12.9 | 0.00 | 0.18 | 0.18 | 83 | 1008.4 |
| 20260506184519 | 17 | 170 | 0.0 | 16.1 | 0.00 | 0.18 | 0.18 | 84 | 1008.3 |
| 20260506183026 | 17 | 165 | 3.2 | 11.3 | 0.00 | 0.18 | 0.18 | 85 | 1008.6 |
| 20260506181519 | 17 | 233 | 0.0 | 6.4 | 0.00 | 0.18 | 0.18 | 86 | 1008.6 |
| 20260506180009 | 17 | 151 | 0.0 | 9.7 | 0.00 | 0.18 | 0.18 | 87 | 1008.9 |
| 20260506174507 | 16 | 176 | 0.0 | 8.0 | 0.00 | 0.18 | 0.18 | 87 | 1008.9 |
| 20260506173007 | 16 | 144 | 3.2 | 11.3 | 0.00 | 0.18 | 0.18 | 87 | 1008.9 |
| 20260506171538 | 16 | 209 | 1.6 | 12.9 | 0.03 | 0.18 | 0.18 | 88 | 1009.1 |
| 20260506170024 | 16 | 340 | 1.6 | 12.9 | 0.08 | 0.18 | 0.18 | 88 | 1009.1 |
| 20260506164522 | 16 | 176 | 1.6 | 8.0 | 0.13 | 0.18 | 0.18 | 89 | 1009.2 |
| 20260506163018 | 17 | 79 | 1.6 | 8.0 | 0.15 | 0.18 | 0.18 | 89 | 1009.3 |
| 20260506161514 | 16 | 262 | 0.0 | 9.7 | 0.15 | 0.15 | 0.15 | 89 | 1009.7 |
| 20260506160014 | 16 | 254 | 0.0 | 4.8 | 0.10 | 0.10 | 0.10 | 88 | 1010.3 |
| 20260506154508 | 17 | 178 | 0.0 | 3.2 | 0.05 | 0.05 | 0.05 | 85 | 1010.3 |
| 20260506153005 | 17 | 234 | 1.6 | 6.4 | 0.03 | 0.03 | 0.03 | 82 | 1010.4 |
| 20260506151533 | 18 | 223 | 3.2 | 12.9 | 0.00 | 0.00 | 0.00 | 77 | 1010.2 |
| 20260506150029 | 18 | 152 | 1.6 | 17.7 | 0.00 | 0.00 | 0.00 | 73 | 1010.0 |
| 20260506144524 | 19 | 265 | 1.6 | 8.0 | 0.00 | 0.00 | 0.00 | 72 | 1010.0 |
| 20260506143037 | 19 | 292 | 1.6 | 9.7 | 0.00 | 0.00 | 0.00 | 72 | 1010.1 |
| 20260506141518 | 19 | 178 | 3.2 | 9.7 | 0.00 | 0.00 | 0.00 | 68 | 1010.2 |
| 20260506140016 | 20 | 188 | 4.8 | 19.3 | 0.00 | 0.00 | 0.00 | 66 | 1010.2 |
| 20260506134510 | 19 | 170 | 3.2 | 16.1 | 0.00 | 0.00 | 0.00 | 68 | 1010.1 |
| 20260506133026 | 18 | 174 | 4.8 | 25.7 | 0.00 | 0.00 | 0.00 | 70 | 1010.1 |
| 20260506131529 | 18 | 210 | 4.8 | 12.9 | 0.00 | 0.00 | 0.00 | 70 | 1010.1 |
| 20260506130025 | 18 | 156 | 3.2 | 11.3 | 0.00 | 0.00 | 0.00 | 71 | 1010.4 |
| 20260506124521 | 18 | 200 | 3.2 | 17.7 | 0.00 | 0.00 | 0.00 | 71 | 1010.4 |
| 20260506123021 | 18 | 217 | 1.6 | 11.3 | 0.00 | 0.00 | 0.00 | 74 | 1010.2 |
| 20260506121520 | 18 | 241 | 1.6 | 8.0 | 0.00 | 0.00 | 0.00 | 74 | 1010.2 |
| 20260506120018 | 18 | 143 | 0.0 | 9.7 | 0.00 | 0.00 | 0.00 | 75 | 1010.1 |
| 20260506114519 | 17 | 104 | 0.0 | 6.4 | 0.00 | 0.00 | 0.00 | 78 | 1010.1 |
| 20260506113026 | 17 | 80 | 0.0 | 6.4 | 0.00 | 0.00 | 0.00 | 78 | 1010.2 |
| 20260506111527 | 17 | 159 | 1.6 | 9.7 | 0.00 | 0.00 | 0.00 | 78 | 1010.2 |
| 20260506110034 | 17 | 85 | 1.6 | 4.8 | 0.00 | 0.00 | 0.00 | 78 | 1010.1 |
| 20260506104527 | 17 | 81 | 0.0 | 4.8 | 0.00 | 0.00 | 0.00 | 79 | 1010.0 |
| 20260506103024 | 17 | 50 | 0.0 | 4.8 | 0.00 | 0.00 | 0.00 | 79 | 1010.0 |
| 20260506101543 | 16 | 93 | 1.6 | 8.0 | 0.00 | 0.00 | 0.00 | 80 | 1010.1 |
| 20260506100019 | 16 | 34 | 1.6 | 3.2 | 0.00 | 0.00 | 0.00 | 80 | 1010.0 |
| 20260506094528 | 16 | 61 | 0.0 | 4.8 | 0.00 | 0.00 | 0.00 | 80 | 1010.1 |
| 20260506093028 | 17 | 226 | 0.0 | 9.7 | 0.00 | 0.00 | 0.00 | 79 | 1010.0 |
| 20260506091517 | 17 | 210 | 0.0 | 4.8 | 0.00 | 0.00 | 0.00 | 78 | 1009.9 |
| 20260506090009 | 17 | 107 | 1.6 | 6.4 | 0.00 | 0.00 | 0.00 | 78 | 1010.1 |
| 20260506084516 | 17 | 173 | 0.0 | 8.0 | 0.00 | 0.00 | 0.00 | 77 | 1010.1 |
| 20260506083026 | 17 | 359 | 1.6 | 9.7 | 0.00 | 0.00 | 0.00 | 77 | 1010.1 |
| 20260506081524 | 17 | 44 | 0.0 | 3.2 | 0.00 | 0.00 | 0.00 | 78 | 1010.2 |
| 20260506073016 | 17 | 202 | 0.0 | 3.2 | 0.00 | 0.00 | 0.00 | 78 | 1010.3 |
| 20260506071517 | 18 | 1 | 0.0 | 4.8 | 0.00 | 0.00 | 0.00 | 76 | 1010.3 |
| 20260506061526 | 18 | 54 | 0.0 | 3.2 | 0.00 | 0.00 | 0.00 | 76 | 1010.5 |
| 20260506044528 | 19 | 201 | 0.0 | 6.4 | 0.00 | 0.00 | 0.00 | 69 | 1011.1 |
| 20260506043028 | 18 | 122 | 0.0 | 6.4 | 0.00 | 0.00 | 0.00 | 69 | 1011.1 |
| 20260506041531 | 18 | 129 | 0.0 | 6.4 | 0.00 | 0.00 | 0.00 | 69 | 1011.2 |
| 20260506040028 | 18 | 169 | 1.6 | 4.8 | 0.00 | 0.00 | 0.00 | 68 | 1011.1 |
| 20260506034526 | 19 | 276 | 0.0 | 4.8 | 0.00 | 0.00 | 0.00 | 67 | 1011.1 |
| 20260506033027 | 19 | 231 | 0.0 | 3.2 | 0.00 | 0.00 | 0.00 | 67 | 1010.9 |
| 20260506031523 | 19 | 318 | 0.0 | 4.8 | 0.00 | 0.00 | 0.00 | 66 | 1011.0 |
| 20260506030023 | 19 | 204 | 0.0 | 4.8 | 0.00 | 0.00 | 0.00 | 65 | 1011.1 |
| 20260506024527 | 19 | 174 | 1.6 | 6.4 | 0.00 | 0.00 | 0.00 | 65 | 1011.1 |
| 20260506023025 | 19 | 348 | 0.0 | 3.2 | 0.00 | 0.00 | 0.00 | 65 | 1011.1 |
| 20260506021528 | 20 | 329 | 0.0 | 3.2 | 0.00 | 0.00 | 0.00 | 63 | 1011.1 |
| 20260506020026 | 20 | 124 | 0.0 | 6.4 | 0.00 | 0.00 | 0.00 | 61 | 1011.0 |
| 20260506014532 | 20 | 217 | 0.0 | 3.2 | 0.00 | 0.00 | 0.00 | 58 | 1010.9 |
| 20260506013028 | 21 | 276 | 0.0 | 4.8 | 0.00 | 0.00 | 0.00 | 55 | 1010.7 |
| 20260506011521 | 21 | 123 | 0.0 | 3.2 | 0.00 | 0.00 | 0.00 | 51 | 1010.5 |
| 20260506010028 | 22 | 248 | 0.0 | 3.2 | 0.00 | 0.00 | 0.00 | 50 | 1010.3 |
| 20260506004537 | 22 | 1 | 0.0 | 4.8 | 0.00 | 0.00 | 0.00 | 48 | 1010.1 |
| 20260506003031 | 23 | 182 | 3.2 | 9.7 | 0.00 | 0.00 | 0.00 | 46 | 1010.1 |
| 20260506001514 | 23 | 248 | 1.6 | 6.4 | 0.00 | 0.00 | 0.00 | 46 | 1009.9 |